Location: Sagn�
(15.2046°N, 12.7898°W)
Time: 12:30:58
(UTC+00:00)

SJ-6B - Pass Details

Date: 08 May 2021
Orbit: 510 x 580 km, 97.6° (Epoch: 14 June)

Event Time Altitude Azimuth Distance (km) Brightness Sun altitude
Exits shadow 20:48:46 33° 26° (NNE) 895 3.8 -22.7°
Drops below altitude 10° 20:51:11 10° 3° (N) 1,777 5.7 -23.2°
Sets 20:53:21 0° 357° (N) 2,680 6.7 -23.7°
